Historia de Miami, FL

Sábado, Enero 14, 2017 — View Current Conditions

Jump to Data:

Date:
Airport Code:
Recently Viewed Airport Codes: KMIA
Daily Summary
  Actual Average Record
Temperature
Temperatura media 74° F / 23° C 68° F / 20° C  
Temperatura máxima 79° F / 26° C 76° F / 24° C 86° F / 30° C (1980)
Temperatura mínima 68° F / 20° C 60° F / 16° C 37° F / 2° C (1964)
Degree Days
Grados día de calefacción 0 2  
Month to date heating degree days 6 28  
Since 1 July heating degree days 6 65  
Cooling Degree Days 9 5  
Month to date cooling degree days 125 70  
Year to date cooling degree days 125 70  
Growing Degree Days 24 (Base 50)    
Moisture
Punto de rocío 61° F / 16° C    
Average Humidity 67    
Maximum Humidity 87    
Minimum Humidity 46    
Precipitación
Precipitación 0.06 pul / 1.52 cm 0.05 pul / 1.27 cm 1.44 pul / 3.66 cm (1974)
Month to date precipitation 1.54 0.71  
Year to date precipitation 1.54 0.71  
Nieve
Nieve 0.00 pul / 0.00 cm pul / cm pul / cm ()
Month to date snowfall 0.0  
Since 1 July snowfall 0.0  
Grosos de nieve 0.00 pul / 0.00 cm    
Presión al nivel del mar
Presión al nivel del mar 30.31 pul / 1026 hPa    
Viento
Velocidad del viento 9 mph / 15 km/h (ENE)    
Velocidad máxima del viento 22 mph / 35 km/h    
Max Gust Speed 27 mph / 43 km/h    
Visibilidad 10 Millas / 16 Kilómetros    
Eventos Lluvia    
T = Trace of Precipitation, MM = Missing Value Source: NWS Daily Summary

Mostrar METARS completo

(help) - Comma Delimited File

Hourly Observations

Hora(EST) Temperatura Punto de rocío Humedad Presión al nivel del mar Visibilidad Dirección del viento Velocidad del viento Velocidad de ráfagas Precipitación Eventos Condiciones
12:53 AM 71.1° F / 21.7° C 63.0° F / 17.2° C 75% 30.34 pul / 1027.2 hPa 10.0 Millas / 16.1 Kilómetros ENE 6.9 mph / 11.1 km/h - 0.00 pul / 0.0 cm   Muy nublado
1:53 AM 71.1° F / 21.7° C 64.0° F / 17.8° C 78% 30.32 pul / 1026.7 hPa 10.0 Millas / 16.1 Kilómetros Sin viento Sin viento - 0.00 pul / 0.0 cm Lluvia Lluvia débil
2:53 AM 71.1° F / 21.7° C 64.0° F / 17.8° C 78% 30.32 pul / 1026.6 hPa 10.0 Millas / 16.1 Kilómetros Este 11.5 mph / 18.5 km/h - 0.00 pul / 0.0 cm   Muy nublado
3:53 AM 68.0° F / 20.0° C 64.0° F / 17.8° C 87% 30.32 pul / 1026.5 hPa 10.0 Millas / 16.1 Kilómetros Sin viento Sin viento - 0.02 pul / 0.5 cm   Muy nublado
4:53 AM 71.1° F / 21.7° C 63.0° F / 17.2° C 75% 30.31 pul / 1026.3 hPa 10.0 Millas / 16.1 Kilómetros NE 4.6 mph / 7.4 km/h - 0.00 pul / 0.0 cm   Muy nublado
5:53 AM 73.0° F / 22.8° C 61.0° F / 16.1° C 66% 30.32 pul / 1026.5 hPa 10.0 Millas / 16.1 Kilómetros NE 6.9 mph / 11.1 km/h - N/A   Muy nublado
6:53 AM 72.0° F / 22.2° C 62.1° F / 16.7° C 71% 30.32 pul / 1026.7 hPa 10.0 Millas / 16.1 Kilómetros NE 5.8 mph / 9.3 km/h - 0.00 pul / 0.0 cm   Muy nublado
7:53 AM 71.1° F / 21.7° C 61.0° F / 16.1° C 70% 30.33 pul / 1027.1 hPa 9.0 Millas / 14.5 Kilómetros NE 11.5 mph / 18.5 km/h - 0.00 pul / 0.0 cm Lluvia Lluvia débil
8:53 AM 75.0° F / 23.9° C 64.0° F / 17.8° C 69% 30.35 pul / 1027.5 hPa 10.0 Millas / 16.1 Kilómetros Este 12.7 mph / 20.4 km/h 17.3 mph / 27.8 km/h 0.02 pul / 0.5 cm   Muy nublado
9:53 AM 73.9° F / 23.3° C 63.0° F / 17.2° C 68% 30.36 pul / 1028.1 hPa 10.0 Millas / 16.1 Kilómetros ENE 8.1 mph / 13.0 km/h - 0.00 pul / 0.0 cm Lluvia Lluvia débil
10:53 AM 75.9° F / 24.4° C 64.0° F / 17.8° C 67% 30.36 pul / 1028.0 hPa 10.0 Millas / 16.1 Kilómetros ENE 9.2 mph / 14.8 km/h - 0.00 pul / 0.0 cm   Muy nublado
11:53 AM 78.1° F / 25.6° C 63.0° F / 17.2° C 60% 30.34 pul / 1027.2 hPa 10.0 Millas / 16.1 Kilómetros Este 12.7 mph / 20.4 km/h - 0.00 pul / 0.0 cm   Muy nublado
12:53 PM 73.0° F / 22.8° C 62.1° F / 16.7° C 68% 30.31 pul / 1026.3 hPa 5.0 Millas / 8.0 Kilómetros ENE 9.2 mph / 14.8 km/h 27.6 mph / 44.4 km/h 0.02 pul / 0.5 cm Lluvia Lluvia
1:53 PM 77.0° F / 25.0° C 63.0° F / 17.2° C 62% 30.29 pul / 1025.5 hPa 10.0 Millas / 16.1 Kilómetros Este 19.6 mph / 31.5 km/h 23.0 mph / 37.0 km/h 0.00 pul / 0.0 cm   Muy nublado
2:53 PM 78.1° F / 25.6° C 61.0° F / 16.1° C 56% 30.27 pul / 1025.1 hPa 10.0 Millas / 16.1 Kilómetros Este 17.3 mph / 27.8 km/h - 0.00 pul / 0.0 cm   Muy nublado
3:53 PM 77.0° F / 25.0° C 60.1° F / 15.6° C 56% 30.27 pul / 1025.0 hPa 10.0 Millas / 16.1 Kilómetros Este 16.1 mph / 25.9 km/h 21.9 mph / 35.2 km/h N/A   Muy nublado
4:53 PM 75.9° F / 24.4° C 59.0° F / 15.0° C 56% 30.27 pul / 1025.0 hPa 10.0 Millas / 16.1 Kilómetros Este 16.1 mph / 25.9 km/h - N/A   Nubes dispersas
5:53 PM 77.0° F / 25.0° C 55.0° F / 12.8° C 47% 30.27 pul / 1025.0 hPa 10.0 Millas / 16.1 Kilómetros Este 11.5 mph / 18.5 km/h - N/A   Muy nublado
6:53 PM 75.0° F / 23.9° C 54.0° F / 12.2° C 48% 30.28 pul / 1025.3 hPa 10.0 Millas / 16.1 Kilómetros Este 9.2 mph / 14.8 km/h 19.6 mph / 31.5 km/h N/A   Muy nublado
7:53 PM 73.9° F / 23.3° C 55.0° F / 12.8° C 52% 30.29 pul / 1025.6 hPa 10.0 Millas / 16.1 Kilómetros Este 8.1 mph / 13.0 km/h - N/A   Muy nublado
8:53 PM 75.0° F / 23.9° C 60.1° F / 15.6° C 60% 30.29 pul / 1025.7 hPa 10.0 Millas / 16.1 Kilómetros ENE 8.1 mph / 13.0 km/h - N/A   Muy nublado
9:53 PM 75.0° F / 23.9° C 61.0° F / 16.1° C 62% 30.30 pul / 1025.9 hPa 10.0 Millas / 16.1 Kilómetros ENE 6.9 mph / 11.1 km/h - N/A   Muy nublado
10:53 PM 75.0° F / 23.9° C 62.1° F / 16.7° C 64% 30.30 pul / 1025.8 hPa 10.0 Millas / 16.1 Kilómetros ENE 6.9 mph / 11.1 km/h - N/A   Muy nublado
11:53 PM 73.9° F / 23.3° C 64.0° F / 17.8° C 71% 30.28 pul / 1025.4 hPa 10.0 Millas / 16.1 Kilómetros NNE 3.5 mph / 5.6 km/h - N/A   Muy nublado